Weather History for Hoonah, AK

Change the Weather History Date:

Thursday, January 24, 2013

  Actual Average Record
Temperature  
Mean Temperature 36 °F -  
Max Temperature 39 °F 30 °F 45 °F (2015)
Min Temperature 32 °F 25 °F 15 °F (1997)
Degree Days  
Heating Degree Days 30    
Moisture  
Dew Point 36 °F    
Average Humidity 98    
Maximum Humidity 100    
Minimum Humidity 93    
Precipitation  
Precipitation 0.00 in - - ()
Sea Level Pressure  
Sea Level Pressure 29.56 in    
Wind  
Wind Speed 3 mph (East)    
Max Wind Speed 10 mph    
Max Gust Speed -    
Visibility 10 miles    
Events Rain    
Averages and records for this station are not official NWS values.
T = Trace of Precipitation, MM = Missing Value Source: NWS Daily Summary

Daily Weather History Graph

Daily Weather History Graph

Search for Another Location

Airport:

Trip Planner

Search our weather history database for the weather conditions in past years. The results will help you decide how hot, cold, wet, or windy it might be!

Date:

Astronomy

Jan. 24, 2013 Rise Set
Actual Time 8:20 AM AKST 4:07 PM AKST
Civil Twilight 7:34 AM AKST 4:53 PM AKST
Nautical Twilight 6:45 AM AKST 5:42 PM AKST
Astronomical Twilight 5:59 AM AKST 6:29 PM AKST
Moon 2:09 PM AKST (1/24) 6:32 AM AKST (1/24)
Length of Visible Light 9h 19m
Length of Day
7h 47m
Waxing Gibbous, 95% of the Moon is Illuminated
Jan 24
Waxing Gibbous
Jan 26
Full
Feb 3
Last Quarter
Feb 9
New
Feb 17
First Quarter

Hourly Weather History & Observations

Time (AKST) Temp. Windchill Dew Point Humidity Pressure Visibility Wind Dir Wind Speed Gust Speed Precip Events Conditions
12:56 AM 34.0 °F - 34.0 °F 100% 29.70 in 10.0 mi Calm Calm - 0.00 in   Overcast
1:56 AM 34.0 °F - 34.0 °F 100% 29.71 in 10.0 mi Calm Calm - 0.00 in   Mostly Cloudy
2:56 AM 32.9 °F - 32.9 °F 100% 29.72 in 10.0 mi Calm Calm - N/A   Overcast
3:56 AM 32.9 °F - 32.9 °F 100% 29.72 in 10.0 mi Calm Calm - N/A   Overcast
4:56 AM 32.9 °F 28.5 °F 32.9 °F 100% 29.72 in 10.0 mi East 4.6 mph - 0.00 in   Overcast
5:56 AM 33.8 °F - 33.8 °F 100% 29.70 in 10.0 mi Calm Calm - N/A   Mostly Cloudy
6:56 AM 32.9 °F 29.8 °F 32.9 °F 100% 29.70 in 10.0 mi Variable 3.5 mph - N/A   Mostly Cloudy
7:56 AM 36.9 °F 31.4 °F 36.9 °F 100% 29.68 in 10.0 mi East 6.9 mph - N/A   Mostly Cloudy
8:56 AM 37.4 °F 32.8 °F 37.4 °F 100% 29.68 in 10.0 mi East 5.8 mph - N/A   Overcast
9:56 AM 37.9 °F 35.5 °F 36.9 °F 96% 29.68 in 10.0 mi East 3.5 mph - N/A   Overcast
10:56 AM 37.9 °F 33.5 °F 36.9 °F 96% 29.66 in 10.0 mi ENE 5.8 mph - N/A   Overcast
11:37 AM 39.2 °F 32.5 °F 37.4 °F 93% 29.64 in 10.0 mi East 10.4 mph - N/A   Overcast
11:56 AM 39.2 °F 32.5 °F 37.4 °F 93% 29.63 in 10.0 mi East 10.4 mph - N/A   Overcast
12:56 PM 38.8 °F 32.6 °F 36.9 °F 93% 29.61 in 10.0 mi East 9.2 mph - 0.00 in Rain Light Rain
1:56 PM 38.8 °F 33.2 °F 37.9 °F 97% 29.58 in 10.0 mi ENE 8.1 mph - 0.00 in   Mostly Cloudy
2:56 PM 39.2 °F 35.9 °F 37.4 °F 93% 29.54 in 10.0 mi ESE 4.6 mph - N/A   Overcast
3:56 PM 37.9 °F 34.4 °F 36.9 °F 96% 29.52 in 10.0 mi East 4.6 mph - N/A   Overcast
4:28 PM 37.4 °F 32.8 °F 37.4 °F 100% 29.50 in 9.0 mi East 5.8 mph - N/A   Overcast
4:56 PM 36.9 °F 33.1 °F 36.9 °F 100% 29.49 in 10.0 mi East 4.6 mph - N/A   Overcast
5:56 PM 37.4 °F - 37.4 °F 100% 29.46 in 10.0 mi Calm Calm - N/A   Overcast
6:44 PM 35.6 °F 31.7 °F 35.6 °F 100% 29.44 in 10.0 mi ENE 4.6 mph - 0.00 in   Overcast
6:56 PM 36.0 °F - 36.0 °F 100% 29.44 in 10.0 mi Calm Calm - 0.00 in   Overcast
7:56 PM 34.9 °F - 34.9 °F 100% 29.42 in 10.0 mi Calm Calm - 0.00 in   Overcast
8:56 PM 34.0 °F 31.0 °F 34.0 °F 100% 29.40 in 10.0 mi East 3.5 mph - N/A   Scattered Clouds
9:56 PM 37.9 °F 34.4 °F 36.9 °F 96% 29.39 in 10.0 mi East 4.6 mph - N/A   Mostly Cloudy
10:56 PM 36.9 °F - 36.9 °F 100% 29.37 in 10.0 mi Calm Calm - N/A   Overcast
11:43 PM 37.4 °F 34.9 °F 35.6 °F 93% 29.35 in 10.0 mi Variable 3.5 mph - 0.00 in Rain Light Rain
11:56 PM 37.4 °F - 37.4 °F 100% 29.35 in 10.0 mi Calm Calm - N/A Rain Light Rain